[[{"header":{"parameterUnit":"m.s-1","parameterCategory":1,"la1":30.2991,"la2":30.254,"lo1":-89.0895,"lo2":-89.0444,"dy":0.0017,"dx":0.0017,"nx":28,"ny":28,"refTime":"2025-08-21T03:00:00:Z","depth":0,"parameterNumber":2,"parameterNumberName":"U-component_of_WINDS"},"data":[0,0,0,0,0,0,0,0,0,0,0,0,0,0,0,0,0,0,0,0,0,0,0,0,0,0,0,0,0,0,0,0,0,0,0,0,0,0,0,0,0,0,0,0,0,0,0,0,0,0,0,0,0,0,0,0,0,0,2.127,2.127,0,2.1335,2.1336,2.1336,2.1375,2.1375,2.1375,2.1375,2.1442,2.1443,2.1445,0,0,0,0,0,0,0,0,0,0,0,0,0,2.1178,2.1179,2.127,2.1271,2.1271,2.1335,2.1336,2.1337,2.1374,2.1375,2.1375,2.1375,2.1441,2.1443,2.1445,0,0,0,0,0,0,0,0,0,0,0,0,0,2.1228,2.118,2.127,2.1298,2.1301,2.1335,2.1336,2.1337,2.1374,2.1375,2.1375,2.1375,2.1441,2.1443,2.1445,2.1456,0,0,2.1453,2.1454,0,0,0,0,0,0,0,0,2.1225,2.1231,2.1293,2.1296,2.13,2.1347,2.1328,2.1377,2.1374,2.1347,2.1375,2.1375,2.141,2.1415,2.1427,2.1459,2.1462,2.1453,2.1455,2.1456,2.1456,0,0,0,0,0,0,0,2.1221,2.1229,2.1296,2.1294,2.1298,2.1307,2.1315,2.1337,2.1376,2.1349,2.1352,2.1359,2.1412,2.1424,2.1429,2.1463,2.1453,2.1455,2.1457,2.1458,2.1508,2.1507,0,0,0,0,0,0,2.1213,2.1225,2.1294,2.1298,2.1262,2.1309,2.1317,2.1331,2.1376,2.1383,2.1359,2.1361,2.142,2.1426,2.1431,2.1446,2.1456,2.1458,2.1459,2.1508,2.1508,2.1507,0,0,0,0,0,0,2.1211,2.1219,2.1291,2.1262,2.1272,2.131,2.1326,2.1333,2.1345,2.1384,2.1391,2.1364,2.142,2.1428,2.1449,2.1449,2.1459,2.1461,2.1508,2.1508,2.1507,2.1477,0,0,0,0,0,0,2.1209,2.1218,2.1222,2.1262,2.1274,2.1308,2.1326,2.1334,2.1349,2.1352,2.1391,2.1397,2.1421,2.1446,2.1452,2.1453,2.1463,2.1508,2.1508,2.1507,2.1478,2.1476,2.1474,0,0,0,0,0,2.1205,2.1211,2.1222,2.123,2.128,2.1308,2.1314,2.1342,2.1349,2.1354,2.1378,2.1396,2.1448,2.1448,2.1455,2.1457,2.1508,2.1508,2.1508,2.1479,2.1476,2.1474,0,0,0,0,0,0,2.117,2.1217,2.123,2.1249,2.1274,2.1314,2.1321,2.1338,2.1361,2.1363,2.1396,2.1405,2.1423,2.1442,2.1441,2.1469,2.148,2.1481,2.1456,2.1454,2.1452,2.1446,2.1465,0,0,0,0,0,2.1165,2.1184,2.1224,2.1237,2.1249,2.1283,2.1296,2.1315,2.1342,2.1353,2.138,2.1405,2.1428,2.1442,2.1465,2.1481,2.149,2.1486,2.1484,2.1482,2.1482,2.1493,2.1492,2.1506,2.1506,2.1506,0,0,2.1154,2.1182,2.1192,2.123,2.1252,2.1271,2.1291,2.131,2.1325,2.1356,2.1378,2.1399,2.143,2.1449,2.1459,2.1466,2.1481,2.1482,2.148,2.1481,2.1493,2.1491,2.149,2.1506,2.1506,2.1506,0,0,2.1143,2.1166,2.118,2.1201,2.1234,2.1257,2.126,2.1298,2.1312,2.1335,2.1359,2.1377,2.1415,2.1436,2.1452,2.145,2.1467,2.1457,2.1445,2.1455,2.1453,2.1453,2.1452,2.1451,2.1457,2.1457,2.1457,0,2.1125,2.1155,2.1185,2.1203,2.1219,2.1248,2.1262,2.1282,2.132,2.1331,2.1338,2.1386,2.1409,2.1434,2.1433,2.1445,2.145,2.1452,2.1451,2.1451,2.145,2.145,2.145,2.1455,2.1456,2.1456,2.1456,0,2.1131,2.1151,2.1158,2.1195,2.1212,2.1228,2.126,2.1274,2.1292,2.1314,2.1337,2.1366,2.1395,2.1402,2.142,2.143,2.1433,2.1445,2.1456,2.1447,2.1447,2.1447,2.1453,2.1454,2.1454,2.1455,0,0,2.11,2.1153,2.1155,2.1172,2.1211,2.1227,2.1244,2.1273,2.1284,2.131,2.1326,2.1357,2.1369,2.1387,2.1407,2.1416,2.1412,2.1427,2.1428,2.1423,2.1426,2.1416,2.1415,2.1424,2.1424,2.1424,2.1423,0,2.1095,2.1128,2.1155,2.1177,2.1196,2.1225,2.124,2.1265,2.1286,2.1306,2.1329,2.1351,2.1365,2.1376,2.1386,2.1411,2.1413,2.1411,2.1439,2.1439,2.143,2.1416,2.1405,2.1403,2.1423,2.1423,2.1423,0,2.1094,2.1118,2.1142,2.118,2.1189,2.1202,2.123,2.1248,2.1278,2.1293,2.1313,2.1334,2.1354,2.1364,2.1391,2.1389,2.1402,2.1417,2.1417,2.142,2.143,2.1418,2.1402,2.1402,2.1424,2.1424,2.1424,0,2.1068,2.1108,2.1127,2.1141,2.1185,2.1193,2.1212,2.1242,2.1257,2.1282,2.1293,2.132,2.1335,2.1355,2.1383,2.1388,2.1408,2.1421,2.1421,2.1421,2.1424,2.1423,2.141,2.1433,2.1433,2.1433,2.1433,0,2.106,2.1073,2.1117,2.1129,2.1145,2.1176,2.1192,2.1213,2.1239,2.1256,2.1282,2.1297,2.1334,2.1353,2.1375,2.1395,2.1402,2.1414,2.142,2.1412,2.141,2.142,2.1421,2.1433,2.1433,2.1433,2.1433,0,2.1034,2.1064,2.1087,2.1127,2.1137,2.1147,2.1181,2.1194,2.1216,2.1237,2.1244,2.128,2.1304,2.1334,2.1369,2.1384,2.1401,2.141,2.1391,2.1394,2.1393,2.1393,2.1386,2.1386,2.1409,2.1409,2.1408,0,2.1026,2.1038,2.1079,2.1092,2.111,2.113,2.1146,2.1178,2.1194,2.1228,2.1237,2.1264,2.1286,2.1324,2.1354,2.138,2.139,2.1385,2.1394,2.1385,2.1389,2.1388,2.1389,2.1383,2.1382,2.1382,2.1382,0,2.101,2.1024,2.1046,2.1074,2.1092,2.1115,2.114,2.1149,2.1185,2.1202,2.1227,2.1245,2.128,2.1306,2.1336,2.1356,2.1375,2.1379,2.1381,2.1372,2.1361,2.1367,2.1385,2.1379,2.1379,2.1379,2.138,2.138,2.0993,2.1004,2.1035,2.1059,2.1081,2.1103,2.1117,2.1141,2.1163,2.1194,2.1211,2.1236,2.1266,2.1309,2.1327,2.1348,2.1355,2.1357,2.1357,2.1357,2.1355,2.1358,2.1353,2.1353,2.1354,2.1354,2.1354,0,2.0978,2.0999,2.102,2.1054,2.1073,2.1089,2.1117,2.1131,2.1153,2.1179,2.1201,2.1231,2.1256,2.1287,2.1315,2.1325,2.1335,2.1332,2.1331,2.1335,2.1347,2.1343,2.1323,2.1323,2.1323,2.1323,2.1323,2.1323,2.0972,2.0992,2.101,2.1041,2.1062,2.1086,2.1101,2.1122,2.1143,2.1174,2.1195,2.1216,2.1244,2.1274,2.1299,2.1307,2.1316,2.131,2.1321,2.1332,2.1334,2.1337,2.1333,2.1312,2.1312,2.1308,2.1308,2.1308]},{"header":{"parameterUnit":"m.s-1","parameterCategory":1,"la1":30.2991,"la2":30.254,"lo1":-89.0895,"lo2":-89.0444,"dy":0.0017,"dx":0.0017,"nx":28,"ny":28,"refTime":"2025-08-21T03:00:00:Z","depth":0,"parameterNumber":3,"parameterNumberName":"V-component_of_WINDS"},"data":[0,0,0,0,0,0,0,0,0,0,0,0,0,0,0,0,0,0,0,0,0,0,0,0,0,0,0,0,0,0,0,0,0,0,0,0,0,0,0,0,0,0,0,0,0,0,0,0,0,0,0,0,0,0,0,0,0,0,-1.5404,-1.5402,0,-1.5275,-1.5274,-1.5272,-1.5188,-1.5187,-1.5186,-1.5186,-1.5052,-1.5049,-1.5046,0,0,0,0,0,0,0,0,0,0,0,0,0,-1.5574,-1.5571,-1.5404,-1.5402,-1.54,-1.5276,-1.5274,-1.5272,-1.5188,-1.5187,-1.5186,-1.5186,-1.5053,-1.5049,-1.5046,0,0,0,0,0,0,0,0,0,0,0,0,0,-1.5478,-1.557,-1.5404,-1.5343,-1.5337,-1.5276,-1.5274,-1.5272,-1.5188,-1.5187,-1.5186,-1.5185,-1.5054,-1.505,-1.5045,-1.5034,0,0,-1.5031,-1.5029,0,0,0,0,0,0,0,0,-1.5484,-1.5472,-1.5354,-1.5347,-1.534,-1.5247,-1.5285,-1.5192,-1.5188,-1.5244,-1.5186,-1.5185,-1.5117,-1.5107,-1.5085,-1.5028,-1.5022,-1.5031,-1.5028,-1.5026,-1.5025,0,0,0,0,0,0,0,-1.5491,-1.5477,-1.5353,-1.5352,-1.5344,-1.5322,-1.5308,-1.5267,-1.5187,-1.5239,-1.5233,-1.5219,-1.5113,-1.509,-1.5081,-1.502,-1.5031,-1.5027,-1.5024,-1.5022,-1.4948,-1.4949,0,0,0,0,0,0,-1.5507,-1.5483,-1.5357,-1.5349,-1.5411,-1.532,-1.5303,-1.5277,-1.5187,-1.5173,-1.522,-1.5215,-1.5098,-1.5087,-1.5076,-1.5058,-1.5026,-1.5022,-1.5019,-1.4947,-1.4948,-1.4949,0,0,0,0,0,0,-1.5511,-1.5497,-1.5362,-1.5414,-1.5396,-1.5318,-1.5289,-1.5275,-1.5252,-1.5172,-1.5158,-1.5211,-1.5097,-1.5083,-1.5046,-1.5052,-1.502,-1.5016,-1.4947,-1.4948,-1.4949,-1.5021,0,0,0,0,0,0,-1.5516,-1.5498,-1.5494,-1.5415,-1.5393,-1.5334,-1.5289,-1.5273,-1.5244,-1.5238,-1.516,-1.5146,-1.5095,-1.5053,-1.5041,-1.5045,-1.5012,-1.4946,-1.4947,-1.4948,-1.5018,-1.5024,-1.503,0,0,0,0,0,-1.5523,-1.5518,-1.5494,-1.5479,-1.5385,-1.5335,-1.5322,-1.5264,-1.5245,-1.524,-1.5189,-1.5149,-1.5054,-1.505,-1.5036,-1.5039,-1.4945,-1.4947,-1.4948,-1.5015,-1.5023,-1.503,0,0,0,0,0,0,-1.5598,-1.5507,-1.5479,-1.5449,-1.54,-1.532,-1.5311,-1.5275,-1.523,-1.5225,-1.5154,-1.5137,-1.5108,-1.5069,-1.5067,-1.5024,-1.4994,-1.4994,-1.505,-1.5057,-1.5063,-1.5073,-1.5008,0,0,0,0,0,-1.5612,-1.5579,-1.55,-1.5481,-1.5458,-1.539,-1.5365,-1.5325,-1.5271,-1.525,-1.5197,-1.5146,-1.5105,-1.5079,-1.5036,-1.5012,-1.4994,-1.5007,-1.5014,-1.5019,-1.5019,-1.5004,-1.5009,-1.4955,-1.4955,-1.4955,0,0,-1.5638,-1.5584,-1.5567,-1.5495,-1.5453,-1.542,-1.5373,-1.5339,-1.5314,-1.5245,-1.5207,-1.5166,-1.5105,-1.5075,-1.5059,-1.5042,-1.503,-1.5021,-1.5026,-1.5023,-1.5007,-1.5012,-1.5017,-1.4956,-1.4956,-1.4956,0,0,-1.5671,-1.5626,-1.5606,-1.5566,-1.5503,-1.5457,-1.5453,-1.5379,-1.5349,-1.5311,-1.5258,-1.5227,-1.5157,-1.5116,-1.5086,-1.5105,-1.5067,-1.5094,-1.5126,-1.5113,-1.5117,-1.5121,-1.5128,-1.5131,-1.5094,-1.5094,-1.5094,0,-1.5711,-1.566,-1.56,-1.5571,-1.5541,-1.5478,-1.5457,-1.542,-1.5347,-1.5327,-1.531,-1.5222,-1.5176,-1.5136,-1.5141,-1.5119,-1.5111,-1.5102,-1.5122,-1.5124,-1.5127,-1.5133,-1.5136,-1.5098,-1.5097,-1.5097,-1.5096,0,-1.5714,-1.568,-1.5671,-1.5603,-1.5572,-1.5547,-1.5483,-1.5459,-1.5422,-1.5379,-1.5341,-1.5284,-1.523,-1.5217,-1.518,-1.5172,-1.5164,-1.5135,-1.5104,-1.5137,-1.5141,-1.5143,-1.5103,-1.5101,-1.51,-1.5099,0,0,-1.5789,-1.569,-1.5688,-1.5657,-1.5584,-1.5556,-1.5529,-1.5476,-1.5457,-1.5409,-1.5385,-1.5328,-1.5302,-1.5268,-1.5226,-1.5214,-1.5234,-1.5186,-1.5184,-1.5198,-1.5223,-1.5245,-1.5249,-1.5209,-1.5209,-1.5209,-1.5228,0,-1.581,-1.5758,-1.5705,-1.5672,-1.564,-1.5581,-1.5557,-1.551,-1.5469,-1.5435,-1.5389,-1.5351,-1.5319,-1.5298,-1.5284,-1.5235,-1.5238,-1.5233,-1.5185,-1.5184,-1.5202,-1.5251,-1.5274,-1.5294,-1.5229,-1.523,-1.523,0,-1.5828,-1.5784,-1.5749,-1.568,-1.5665,-1.5645,-1.5593,-1.5562,-1.5508,-1.5479,-1.5443,-1.5398,-1.5367,-1.5341,-1.5296,-1.5294,-1.5271,-1.5244,-1.5244,-1.5237,-1.5209,-1.5245,-1.5299,-1.5303,-1.5232,-1.5232,-1.5232,0,-1.5886,-1.5819,-1.5789,-1.5764,-1.5684,-1.5671,-1.5637,-1.5582,-1.5554,-1.551,-1.5491,-1.5443,-1.5417,-1.5381,-1.5325,-1.5311,-1.5287,-1.5256,-1.5262,-1.5264,-1.5259,-1.526,-1.5311,-1.5245,-1.5245,-1.5245,-1.5245,0,-1.5916,-1.5897,-1.5815,-1.5796,-1.5773,-1.5712,-1.5691,-1.5651,-1.5603,-1.5576,-1.5522,-1.5497,-1.5425,-1.5393,-1.5349,-1.5319,-1.5307,-1.5283,-1.5272,-1.5288,-1.5291,-1.5272,-1.5269,-1.5245,-1.5245,-1.5245,-1.5245,0,-1.5977,-1.5921,-1.5885,-1.5813,-1.5794,-1.5781,-1.5718,-1.5698,-1.5655,-1.5622,-1.5611,-1.5543,-1.5501,-1.5443,-1.5383,-1.5354,-1.5331,-1.5312,-1.5349,-1.5343,-1.5353,-1.5353,-1.5392,-1.5395,-1.5328,-1.5329,-1.5329,0,-1.5999,-1.5984,-1.591,-1.5889,-1.5857,-1.5823,-1.5795,-1.5735,-1.5708,-1.5646,-1.5634,-1.5589,-1.555,-1.5487,-1.5432,-1.5386,-1.5366,-1.5384,-1.5359,-1.5377,-1.5367,-1.5369,-1.5367,-1.5389,-1.539,-1.5391,-1.5392,0,-1.6045,-1.6019,-1.5982,-1.5936,-1.5905,-1.5866,-1.5823,-1.5809,-1.5739,-1.5712,-1.567,-1.564,-1.558,-1.5536,-1.5484,-1.5448,-1.5409,-1.54,-1.5399,-1.5416,-1.5438,-1.5427,-1.5366,-1.5399,-1.5399,-1.5398,-1.5398,-1.5397,-1.6088,-1.6072,-1.6018,-1.5979,-1.5941,-1.5904,-1.5882,-1.5837,-1.5801,-1.5749,-1.5715,-1.5675,-1.5622,-1.5548,-1.5514,-1.5482,-1.5465,-1.5464,-1.5463,-1.5464,-1.547,-1.5444,-1.5472,-1.5472,-1.5471,-1.5471,-1.5471,0,-1.6131,-1.6095,-1.6059,-1.6003,-1.5973,-1.594,-1.5892,-1.5868,-1.5834,-1.5788,-1.5752,-1.5704,-1.5662,-1.5605,-1.5558,-1.5543,-1.5524,-1.5533,-1.5534,-1.5526,-1.5487,-1.5493,-1.555,-1.555,-1.555,-1.555,-1.555,-1.555,-1.6151,-1.6122,-1.609,-1.6042,-1.6004,-1.5966,-1.5942,-1.5907,-1.587,-1.582,-1.5785,-1.5749,-1.5698,-1.5648,-1.5608,-1.5592,-1.5578,-1.5593,-1.5571,-1.5536,-1.5529,-1.5522,-1.5527,-1.559,-1.559,-1.5613,-1.5613,-1.5613]}]]